TimeCST,TemperatureF,Dew PointF,Humidity,Sea Level PressureIn,VisibilityMPH,Wind Direction,Wind SpeedMPH,Gust SpeedMPH,PrecipitationIn,Events,Conditions,WindDirDegrees,DateUTC
12:15 AM,24.8,24.8,100,30.21,1.8,East,5.8,-,N/A,,Overcast,90,2013-02-08 06:15:00
12:53 AM,26.1,25.0,96,30.26,0.2,East,3.5,-,N/A,Fog,Light Freezing Fog,90,2013-02-08 06:53:00
1:53 AM,25.0,25.0,100,30.26,0.2,Calm,Calm,-,N/A,Fog,Light Freezing Fog,0,2013-02-08 07:53:00
2:53 AM,25.0,25.0,100,30.27,0.2,East,3.5,-,N/A,Fog,Light Freezing Fog,80,2013-02-08 08:53:00
3:53 AM,25.0,25.0,100,30.26,0.2,East,5.8,-,N/A,Fog,Light Freezing Fog,80,2013-02-08 09:53:00
4:53 AM,25.0,24.1,96,30.27,0.2,SE,6.9,-,N/A,Fog,Light Freezing Fog,130,2013-02-08 10:53:00
5:53 AM,24.8,24.8,100,30.22,0.2,ESE,6.9,-,N/A,Fog,Light Freezing Fog,120,2013-02-08 11:53:00
6:53 AM,25.0,24.1,96,30.29,0.2,SE,5.8,-,0.00,Fog-Snow,Light Snow,130,2013-02-08 12:53:00
7:53 AM,25.0,24.1,96,30.29,0.2,SSE,8.1,-,0.00,Fog-Snow,Light Snow,150,2013-02-08 13:53:00
8:53 AM,25.0,24.1,96,30.29,0.2,SE,10.4,-,0.00,Fog-Snow,Light Snow,130,2013-02-08 14:53:00
9:53 AM,26.6,24.8,93,30.23,0.2,SSE,8.1,-,N/A,Fog-Snow,Light Snow,150,2013-02-08 15:53:00
10:53 AM,27.0,26.1,96,30.31,0.2,SSE,9.2,-,0.00,Fog,Light Freezing Fog,160,2013-02-08 16:53:00
11:34 AM,28.4,26.6,93,30.23,1.0,SSE,12.7,17.3,N/A,,Overcast,160,2013-02-08 17:34:00
11:53 AM,28.0,27.0,96,30.30,1.0,SSE,11.5,-,N/A,,Overcast,160,2013-02-08 17:53:00
12:12 PM,28.4,28.4,100,30.20,2.5,SSE,13.8,-,N/A,,Overcast,160,2013-02-08 18:12:00
12:38 PM,28.4,28.4,100,30.18,1.5,SSE,11.5,-,N/A,,Overcast,150,2013-02-08 18:38:00
12:43 PM,28.4,28.4,100,30.18,3.0,SSE,11.5,-,N/A,,Overcast,150,2013-02-08 18:43:00
12:53 PM,28.9,28.0,96,30.25,4.0,SSE,11.5,19.6,N/A,,Overcast,150,2013-02-08 18:53:00
1:53 PM,30.0,28.9,96,30.22,5.0,SSE,12.7,20.7,N/A,,Overcast,160,2013-02-08 19:53:00
2:39 PM,30.2,28.4,93,30.11,8.0,SSE,13.8,-,N/A,,Overcast,150,2013-02-08 20:39:00
2:53 PM,30.0,28.9,96,30.18,8.0,SSE,13.8,21.9,N/A,,Mostly Cloudy,150,2013-02-08 20:53:00
3:23 PM,30.2,28.4,93,30.11,9.0,SSE,11.5,-,N/A,,Scattered Clouds,150,2013-02-08 21:23:00
3:53 PM,30.9,28.9,92,30.15,10.0,SSE,13.8,21.9,N/A,,Clear,150,2013-02-08 21:53:00
4:16 PM,30.2,28.4,93,30.08,9.0,SSE,15.0,23.0,N/A,,Partly Cloudy,160,2013-02-08 22:16:00
4:53 PM,33.1,28.9,85,30.12,10.0,SSE,12.7,-,N/A,,Clear,160,2013-02-08 22:53:00
5:53 PM,35.1,28.0,76,30.11,10.0,SSE,17.3,23.0,N/A,,Clear,160,2013-02-08 23:53:00
6:53 PM,34.0,28.0,79,30.09,10.0,SSE,16.1,23.0,N/A,,Clear,150,2013-02-09 00:53:00
7:53 PM,32.0,27.0,82,30.08,8.0,SSE,12.7,20.7,N/A,,Clear,160,2013-02-09 01:53:00
8:53 PM,30.9,27.0,85,30.10,7.0,SSE,13.8,-,N/A,,Clear,160,2013-02-09 02:53:00
9:53 PM,30.9,28.9,92,30.09,5.0,SSE,15.0,23.0,N/A,,Clear,160,2013-02-09 03:53:00
10:53 PM,30.9,28.9,92,30.08,5.0,SSE,11.5,-,N/A,,Clear,160,2013-02-09 04:53:00
11:53 PM,30.9,28.0,89,30.06,6.0,SSE,13.8,-,N/A,,Clear,160,2013-02-09 05:53:00